www.pogodaiklimat.ru

Погода и климат >> Архив погоды >> Украина >> Харьков


АРХИВ ПОГОДЫ в Харькове

Время (UTC), дата Ветер
(напр.,м/с)
 
Видим.   Явления Облачность Т
(С)
Тd
(С)
f
(%)
Тe
(С)
Тes
(С)
Комфортность P
(гПа)
Po
(гПа)
Тmin
(С)
Tmax
(С)
R
(мм)
R24
(мм)
S
(см)
03 8.12 З 2 10 км 10/10 210 м
[St]
-3.0 -4.3 91 -7 -7 по сезону 1016.8 997.1
06 8.12 З 2 10 км 10/10 300 м
[Sc]
-3.4 -4.5 92 -8 -8 по сезону 1017.9 998.2 -3.4 10
09 8.12 ЮЗ 5 10 км 10/10 180 м
[St]
-3.6 -4.7 92 -11 -11 прохладно 1018.2 998.5
12 8.12 ЮЗ 4 10 км 10/10 120 м
[St]
-3.9 -5.1 91 -10 -10 прохладно 1018.0 998.3
15 8.12 Ю 4 10 км 9/8 300 м
[St Ac trans]
-4.2 -5.8 89 -11 -11 прохладно 1018.2 998.4
18 8.12 ЮВ 4 10 км 9/0
[Ac trans]
-5.0 -6.3 91 -12 -12 прохладно 1017.9 998.1 -3.4
21 8.12 ЮВ 4 10 км 9/0
[Ac trans]
-4.0 -5.2 91 -10 -10 по сезону 1017.5 997.8
00 9.12 ЮВ 4 10 км 10/0
[Ac und]
-3.8 -4.9 92 -10 -10 по сезону 1016.8 997.1
03 9.12 ЮВ 6 10 км слабый снег 10/8 1410 м
[Sc Ac As]
-2.8 -4.1 91 -10 -10 по сезону 1015.0 995.4
06 9.12 ЮВ 6 10 км слабый снег 10/8 1230 м
[Sc As op]
-2.1 -3.3 91 -9 -9 по сезону 1014.2 994.7 -5.0 0.2 9
09 9.12 ЮВ 5 3000 м слабый ливневой снег 10/10 150 м
[Cb cap]
-0.6 -1.2 96 -7 -7 по сезону 1013.3 993.9
12 9.12 ЮВ 5 8000 м слабый дождь {ливн. осадки, снег} 10/8 240 м
[Frnb As op]
+1.0 +0.5 96 -5 -5 по сезону 1011.6 992.3
15 9.12 ЮВ 6 7000 м слабый дождь 10/6 240 м
[Frnb As op]
+1.4 +0.9 96 -5 -5 по сезону 1010.4 991.2
18 9.12 ЮВ 6 4400 м слабый дождь 10/8 90 м
[Frnb As op]
+1.7 +1.2 96 -5 -5 по сезону 1009.4 990.2 +1.7 4
21 9.12 ЮВ 7 6000 м в посл. час дождь {ливн. осадки} 10/8 180 м
[Frnb As op]
+2.2 +1.7 96 -4 -4 по сезону 1008.6 989.5
00 10.12 ЮВ 5 4600 м слабый дождь {ливн. осадки} 10/8 120 м
[Frnb As op]
+2.4 +1.9 96 -3 -3 тепло 1008.5 989.4
03 10.12 ЮВ 3 2200 м слабый дождь 10/8 90 м
[Frnb As op]
+1.8 +1.3 96 -3 -3 тепло 1007.9 988.8
06 10.12 ЮВ 3 4300 м слабый дождь 10/8 150 м
[Frnb As op]
+1.8 +1.3 96 -3 -3 тепло 1008.4 989.3 +1.5 4 4
09 10.12 ЮВ 4 2900 м слабый дождь 10/8 90 м
[Frnb As op]
+1.7 +1.4 98 -4 -4 по сезону 1007.9 988.8
12 10.12 ЮВ 4 4500 м слабый дождь 10/9 240 м
[Frnb As op]
+1.8 +1.3 96 -3 -3 по сезону 1007.3 988.2
15 10.12 В 4 5000 м слабый ливневой дождь 10/10 120 м
[Cb cap]
+1.0 +0.7 98 -4 -4 по сезону 1007.6 988.4
18 10.12 В 4 2700 м слабый дождь со снегом {ливн. осадки} 10/8 90 м
[Frnb As op]
+0.4 -0.2 96 -5 -5 по сезону 1007.4 988.2 +1.8 7
21 10.12 ЮВ 3 2900 м дымка {дождь} 10/8 90 м
[Frnb As op]
+0.8 +0.5 98 -4 -4 по сезону 1007.5 988.3
00 11.12 В 2 200 м туман {дождь} ?/? +0.7 +0.7 100 -3 -3 тепло 1008.1 988.9
03 11.12 ЮВ 1 100 м туман ?/? +0.5 +0.5 100 -2 -2 тепло 1008.6 989.4
06 11.12 штиль 0 100 м туман ?/? +0.5 +0.5 100 -1 -1 тепло 1010.2 990.9 +0.4 0.7 3
09 11.12 С 2 1800 м в посл. час туман 10/10 120 м
[St]
+1.6 +1.3 98 -2 -2 тепло 1010.3 991.1
12 11.12 С 2 3500 м дымка {туман} 10/10 90 м
[St]
+1.6 +1.1 96 -2 -2 по сезону 1010.2 991.0
15 11.12 СВ 2 2100 м дымка 10/10 90 м
[St]
+1.4 +1.1 98 -2 -2 по сезону 1011.4 992.2
18 11.12 СВ 5 5000 м слабый дождь {туман} 10/9 120 м
[Frnb As op]
+1.0 +0.7 98 -5 -5 по сезону 1010.9 991.7 +1.6 0.0
21 11.12 СВ 5 7000 м слабый дождь 10/8 150 м
[Frnb As op]
+0.8 +0.5 98 -5 -5 по сезону 1009.0 989.8
00 12.12 СВ 5 6000 м слабый снег {дождь} 10/9 150 м
[Frnb As op]
+0.6 +0.3 98 -6 -6 по сезону 1008.2 989.0
03 12.12 СВ 6 6000 м слабый снег 10/8 180 м
[Frnb As op]
+0.5 +0.2 98 -6 -6 по сезону 1006.5 987.3
06 12.12 СВ 6 10 км слабый ливневой снег 10/10 210 м
[Cb cap]
+0.1 -0.5 96 -7 -7 по сезону 1006.0 986.8 +0.1 7 4
09 12.12 СВ 6 4400 м слабый снег {ливн. осадки} 10/8 150 м
[Frnb As op]
+0.5 -0.1 96 -6 -6 по сезону 1005.0 985.8
12 12.12 СВ 5 7000 м слабый снег {ливн. осадки} 10/8 150 м
[Frnb As op]
+0.6 +0.1 96 -6 -6 по сезону 1004.3 985.2
15 12.12 СВ 3 4800 м слабый снег 10/8 120 м
[Frnb As op]
+0.6 +0.1 96 -4 -4 по сезону 1005.3 986.1
18 12.12 СВ 1 7000 м слабый снег 10/8 120 м
[Frnb As op]
+0.6 +0.1 96 -2 -2 тепло 1006.1 986.9 +0.8 3
21 12.12 ЮВ 2 300 м туман {снег} ?/? +0.3 +0.3 100 -4 -4 по сезону 1007.8 988.6
00 13.12 Ю 4 5000 м в посл. час туман {снег} 10/10 90 м
[St]
+0.3 0.0 98 -5 -5 по сезону 1009.9 990.6
03 13.12 Ю 4 5000 м в посл. час снег 10/10 120 м
[Sc]
+0.1 -0.2 98 -6 -6 по сезону 1011.3 992.0
06 13.12 Ю 3 10 км {снег} 10/10 300 м
[Sc]
-0.4 -1.6 92 -5 -5 по сезону 1014.0 994.6 -0.4 0.0 4
09 13.12 Ю 5 10 км 10/10 480 м
[Sc]
-0.2 -2.0 88 -6 -6 по сезону 1015.6 996.2
12 13.12 Ю 2 10 км 10/10 500 м
[Sc]
+0.1 -2.0 86 -4 -4 по сезону 1016.7 997.3
15 13.12 В 3 10 км 10/10 540 м
[Sc]
-0.2 -1.7 90 -5 -5 по сезону 1018.4 998.9
18 13.12 В 3 10 км 9/9 870 м
[Sc]
-0.1 -1.3 92 -5 -5 по сезону 1019.7 1000.2 +0.1
21 13.12 В 4 10 км 9/9 930 м
[Sc]
-0.5 -1.7 92 -6 -6 по сезону 1020.3 1000.8
00 14.12 В 3 10 км 6/3 1000 м
[Sc Ac trans]
-1.4 -2.5 92 -6 -6 по сезону 1020.6 1001.0
03 14.12 В 3 10 км 10/10 330 м
[St]
-1.0 -2.0 93 -6 -6 по сезону 1021.0 1001.4
06 14.12 В 3 6000 м дымка 10/10 330 м
[St]
-0.6 -1.8 92 -6 -6 по сезону 1022.0 1002.4 -1.9 4
09 14.12 В 2 6000 м дымка 10/10 300 м
[Sc]
-0.2 -1.1 94 -4 -4 по сезону 1022.7 1003.1
12 14.12 В 2 9000 м дымка 9/9 330 м
[Sc]
+0.2 -1.2 90 -3 -3 по сезону 1022.7 1003.2
15 14.12 В 1 10 км 9/9 400 м
[St]
-0.2 -1.4 92 -2 -2 тепло 1024.1 1004.5
18 14.12 С 1 10 км 9/9 540 м
[Sc]
-0.4 -2.2 88 -2 -2 тепло 1024.4 1004.8 +0.4
21 14.12 С 3 5000 м дымка 10/10 360 м
[Sc]
-1.9 -3.1 91 -7 -7 по сезону 1025.1 1005.4
00 15.12 С 3 10 км 10/10 240 м
[St]
-2.1 -3.6 89 -7 -7 по сезону 1026.0 1006.2

 

Местоположение метеостанции Харьков (Харьковская область, Украина): широта 49.97 долгота 36.13 высота над уровнем моря 155 м.

В архиве по умолчанию представлена погода в Харькове за последнюю неделю. Архивные данные за месяц целиком и за предыдущие месяцы, начиная с января 2011 года, Вы можете получить, выбрав интересующий диапазон дат из раскрывающегося списка и нажав кнопку "Ввод!".


*Определитесь, кто Вы:
робот инопланетянин человек

Внимание! Время в таблицах - всемирное. Для получения местного времени необходимо прибавить поправку, которая в Харькове равна 2 ч.

Смотрите также архив погоды в соседних городах и на ближайших метеорологических станциях:

Погода в Золочеве (Львовская область, Украина) (39 км)
Погода в Боходухове (Харьковская область, Украина) (50 км)
Погода в Слобожанском (Донецкая область, Украина) (50 км)
Погода в Коломаке (Харьковская область, Украина) (66 км)
Погода в Белгороде (Белгородская область, Россия) (80 км)
Погода в Краснограде (Харьковская область, Украина) (82 км)
Погода в Великом Бурлуке (Харьковская область, Украина) (90 км)
Погода в Готне (Белгородская область, Россия) (96 км)
Погода в Купянске (Харьковская область, Украина) (119 км)
Погода в Лозовой (Харьковская область, Украина) (120 км)

Пояснения к столбцам:

Ветер - указаны скорость ветра в м/с - средняя за 10 мин, порывы в срок и между сроками (в фигурных скобках) и направление, откуда дует ветер: С - северный, СВ - северо-восточный, В - восточный, ЮВ - юго-восточный, Ю - южный, ЮЗ - юго-западный, З - западный, СЗ - северо-западный.
Видимость - горизонтальная дальность видимости в метрах или километрах. При видимости от 1 до 10 км при отсутствии осадков обычно наблюдается дымка, при ухудшении видимости до 1 км и менее - туман. В сухую погоду видимость может ухудшаться дымом, пылью или мглою.
Явления - указаны атмосферные явления, наблюдавшиеся в срок или в последний час перед сроком; фигурными скобками обозначены явления, наблюдавшиеся между сроками (за 1-3 часа до срока); квадратными скобками обозначены град или гололедные отложения с указанием их диаметра в мм.
Облачность - указаны через наклонную черту общая и нижняя облачность в баллах и высота нижней границы облаков в метрах; квадратными скобками обозначены формы облаков: Ci - перистые, Cs - перисто-слоистые, Cc - перисто-кучевые, Ac - высококучевые, As - высокослоистые, Sc - слоисто-кучевые, Ns - слоисто-дождевые, Cu - кучевые, Cb - кучево-дождевые. Подробнее классификацию облаков см. в Атласе облаков (PDF).
T - Температура воздуха - температура, измеренная на высоте 2 м над землей.
Td - Температура точки росы - температура, при понижении до которой содержащийся в воздухе водяной пар достигнет насыщения.
f - Относительная влажность воздуха - влажноcть воздуха, измеренная на высоте 2 м над землей.
Te - Эффективная температура - температура, которую ощущает одетый по сезону человек в тени. Характеристика душности погоды. При расчете учитывается влияние влажности воздуха и скорости ветра на теплоощущения человека.
Tes - Эффективная температура на солнце - температура, которую ощущает человек, с поправкой на солнечный нагрев. Характеристика знойности погоды. Зависит от высоты солнца над горизонтом, облачности и скорости ветра. Ночью, в пасмурную погоду, а также при ветре 12 м/с и более поправка равна нулю.
P - Атмосферное давление - приведенное к уровню моря атмосферное давление.
Po - Атмосферное давление - измеренное на уровне метеостанции атмосферное давление.
Tmin - Минимальная температура - минимум температуры воздуха на высоте 2 м над землей.
Tmax - Максимальная температура - максимум температуры воздуха на высоте 2 м над землей.
R - Количество осадков - Количество выпавших осадков за период времени, мм. При наведении курсора мыши на число - период времени, за который выпало указанное количество осадков.
R24 - Количество осадков - Количество выпавших осадков за 24 часа, мм.
S - Снежный покров - Высота снежного покрова, см. При наведении курсора мыши на число - состояние снежного покрова и степень покрытия местности в баллах.